This demonstration page uses our WeatherBlox Daily Observations layout. Learn more.

Left ArrowRight Arrow

39.01783, -85.05884

Hourly Observations for April 24, 2018

Temp ( °F °C ) Dew Point ( °F °C ) Humidity (%) Winds ( mph kmh ) Pressure ( in mb ) Visibility ( mi km ) Precip ( " mm )
12:52 am 00:52 Cloudy 53 11.7 48 8.9 83 83 E 12 19 30.00 1016 10 16 N/A
1:52 am 01:52 Cloudy 52 11.1 48 8.9 86 86 E 9 15 29.99 1016 10 16 N/A
2:52 am 02:52 Cloudy with Light Rain 53 11.7 48 8.9 83 83 E 9 15 29.98 1015 9 14 N/A
3:52 am 03:52 Cloudy with Light Rain 52 11.1 49 9.4 89 89 ENE 9 15 29.97 1015 8 13 0.02 0.51
4:52 am 04:52 Cloudy with Light Rain 52 11.1 49 9.4 89 89 ENE 12 19 29.95 1014 10 16 0.02 0.51
5:52 am 05:52 Cloudy with Light Rain 52 11.1 51 10.6 97 97 ENE 10 17 29.94 1014 10 16 0.02 0.51
6:52 am 06:52 Cloudy with Light Rain 52 11.1 51 10.6 97 97 ENE 8 13 29.94 1014 8 13 0.02 0.51
7:52 am 07:52 Cloudy with Light Rain 52 11.1 51 10.6 97 97 ENE 8 13 29.95 1014 7 11 0.01 0.25
8:52 am 08:52 Cloudy with Light Rain 53 11.7 52 11.1 96 96 E 10 17 29.94 1014 6 10 0.05 1.27
9:12 am 09:12 Cloudy with Light Rain 53 11.7 52 11.1 96 96 E 10 17 29.94 1014 6 10 0.02 0.51
9:52 am 09:52 Cloudy with Light Rain 54 12.2 52 11.1 93 93 E 12 19 29.94 1014 7 11 0.05 1.27
10:03 am 10:03 Cloudy with Light Rain 54 12.2 53 11.7 97 97 E 12 19 29.94 1014 5 8 0.01 0.25
10:52 am 10:52 Cloudy with Light Rain 54 12.2 53 11.7 97 97 E 9 15 29.94 1014 7 11 0.04 1.02
11:52 am 11:52 Cloudy with Light Rain 55 12.8 53 11.7 93 93 E 9 15 29.93 1014 7 11 N/A
12:26 pm 12:26 Cloudy with Light Rain 55 12.8 54 12.2 96 96 E 10 17 29.94 1014 6 10 0.01 0.25
12:52 pm 12:52 Cloudy 55 12.8 53 11.7 93 93 ENE 9 15 29.91 1013 10 16 0.01 0.25
1:27 pm 13:27 Cloudy with Light Rain 56 13.3 53 11.7 90 90 NE 8 13 29.91 1013 3 5 N/A
1:36 pm 13:36 Cloudy with Light Rain 55 12.8 53 11.7 93 93 NE 9 15 29.91 1013 2 3 N/A
1:52 pm 13:52 Cloudy with Light Rain 55 12.8 54 12.2 96 96 NE 8 13 29.90 1013 2 3 N/A
2:38 pm 14:38 Cloudy with Light Rain 55 12.8 55 12.8 100 100 NE 9 15 29.91 1013 2 2 0.02 0.51
2:52 pm 14:52 Cloudy with Drizzle 55 12.8 54 12.2 96 96 NE 9 15 29.89 1012 2 2 0.02 0.51
3:40 pm 15:40 Cloudy with Drizzle 56 13.3 55 12.8 97 97 ENE 8 13 29.91 1013 2 3 0.02 0.51
3:52 pm 15:52 Cloudy with Drizzle 55 12.8 55 12.8 100 100 NE 9 15 29.88 1012 2 3 0.02 0.51
4:52 pm 16:52 Cloudy with Mist and Fog 56 13.3 56 13.3 100 100 NNE 6 9 29.88 1012 2 3 N/A
5:47 pm 17:47 Cloudy with Drizzle 55 13 55 13 100 100 NNE 6 9 29.88 1012 2 3 0.01 0.25
5:52 pm 17:52 Cloudy with Drizzle 56 13.3 55 12.8 97 97 NNE 7 11 29.88 1012 2 3 0.01 0.25
6:52 pm 18:52 Cloudy with Drizzle 55 12.8 54 12.2 96 96 NNW 7 11 29.88 1012 2 3 N/A
7:03 pm 19:03 Cloudy with Drizzle 55 12.8 54 12.2 96 96 NNW 7 11 29.88 1012 2 3 0.01 0.25
7:52 pm 19:52 Cloudy with Mist and Fog 55 12.8 55 12.8 100 100 NNW 8 13 29.87 1012 2 3 0.01 0.25
8:31 pm 20:31 Cloudy 54 12.2 54 12.2 100 100 N 7 11 29.88 1012 8 13 N/A
8:52 pm 20:52 Cloudy 54 12.2 54 12.2 100 100 NNW 7 11 29.88 1012 9 14 N/A
9:52 pm 21:52 Cloudy 54 12.2 54 12.2 100 100 NNW 7 11 29.90 1012 8 13 N/A
10:13 pm 22:13 Cloudy 54 12.2 53 11.7 97 97 NNW 6 9 29.91 1013 8 13 N/A
10:52 pm 22:52 Cloudy 54 12.2 52 11.1 93 93 N 9 15 29.90 1013 10 16 N/A
11:09 pm 23:09 Cloudy 54 12.2 53 11.7 97 97 NNW 9 15 29.91 1013 9 14 N/A
11:52 pm 23:52 Cloudy 54 12.2 52 11.1 93 93 NNW 10 17 29.90 1012 9 14 N/A

Powered by AerisWeather